• In Belarus
  • List of Countries
  • For 7 days
  • Water Temperature
  • Satellite Maps
  • Weather Map
  • Weather Widgets
  • user-avatar
    Login

    Hourly Weather Igls

    Today, 25 July, Tuesday

    Time Temperature Precipitation Wind Pressure Humidity
    00:00 +9°C° 0 mm 2 mps 680 mmHg 95%
    01:00 +9°C° 0 mm 2 mps 680 mmHg 94%
    02:00 +9°C° 0.5 mm 2 mps 679 mmHg 94%
    03:00 +9°C° 0.5 mm 2 mps 679 mmHg 94%
    04:00 +9°C° 0.5 mm 2 mps 679 mmHg 94%
    05:00 +10°C° 0.7 mm 2 mps 679 mmHg 93%
    06:00 +10°C° 0.7 mm 2 mps 679 mmHg 93%
    07:00 +12°C° 0 mm 1 mps 679 mmHg 91%
    08:00 +13°C° 0.5 mm 2 mps 679 mmHg 88%
    09:00 +14°C° 0.5 mm 2 mps 679 mmHg 84%
    10:00 +15°C° 0.5 mm 2 mps 679 mmHg 80%
    11:00 +15°C° 0.6 mm 2 mps 679 mmHg 77%
    12:00 +16°C° 0.6 mm 3 mps 679 mmHg 74%
    13:00 +16°C° 0 mm 3 mps 679 mmHg 72%
    14:00 +16°C° 0.7 mm 3 mps 679 mmHg 72%
    15:00 +16°C° 0.7 mm 3 mps 679 mmHg 72%
    16:00 +16°C° 0.7 mm 3 mps 679 mmHg 73%
    17:00 +15°C° 0.4 mm 2 mps 679 mmHg 78%
    18:00 +14°C° 0.4 mm 2 mps 679 mmHg 82%
    19:00 +14°C° 0.4 mm 2 mps 679 mmHg 87%
    20:00 +13°C° 0.4 mm 2 mps 679 mmHg 89%
    21:00 +12°C° 0.4 mm 2 mps 679 mmHg 91%
    22:00 +11°C° 0.4 mm 1 mps 679 mmHg 94%
    23:00 +11°C° 0.4 mm 1 mps 679 mmHg 94%

    Tomorrow, 26 July, Wednesday

    Time Temperature Precipitation Wind Pressure Humidity
    00:00 +10°C° 0.4 mm 2 mps 679 mmHg 94%
    01:00 +10°C° 0.4 mm 2 mps 678 mmHg 93%
    02:00 +10°C° 0.2 mm 2 mps 678 mmHg 93%
    03:00 +10°C° 0.2 mm 2 mps 678 mmHg 93%
    04:00 +10°C° 0.2 mm 2 mps 678 mmHg 92%
    05:00 +10°C° 1.3 mm 2 mps 678 mmHg 92%
    06:00 +10°C° 1.3 mm 2 mps 678 mmHg 93%
    07:00 +10°C° 1.3 mm 2 mps 678 mmHg 93%
    08:00 +12°C° 1.1 mm 2 mps 679 mmHg 91%
    09:00 +12°C° 1.1 mm 2 mps 679 mmHg 90%
    10:00 +13°C° 1.1 mm 2 mps 679 mmHg 88%
    11:00 +14°C° 0.6 mm 2 mps 680 mmHg 86%
    12:00 +13°C° 0.6 mm 3 mps 680 mmHg 84%
    13:00 +14°C° 0.6 mm 3 mps 680 mmHg 81%
    14:00 +15°C° 0.6 mm 2 mps 681 mmHg 81%
    15:00 +15°C° 0.6 mm 2 mps 681 mmHg 80%
    16:00 +15°C° 0.6 mm 2 mps 681 mmHg 80%
    17:00 +14°C° 0.8 mm 2 mps 681 mmHg 83%
    18:00 +14°C° 0.8 mm 2 mps 681 mmHg 87%
    19:00 +13°C° 0.8 mm 2 mps 681 mmHg 90%
    20:00 +12°C° 0.7 mm 2 mps 681 mmHg 92%
    21:00 +12°C° 0.7 mm 2 mps 682 mmHg 93%
    22:00 +10°C° 0.7 mm 2 mps 682 mmHg 95%
    23:00 +10°C° 0.2 mm 2 mps 682 mmHg 94%

    Day after tomorrow, 27 July, Thursday

    Time Temperature Precipitation Wind Pressure Humidity
    00:00 +10°C° 0.2 mm 2 mps 682 mmHg 94%
    01:00 +10°C° 0.2 mm 2 mps 682 mmHg 93%
    02:00 +10°C° 0 mm 2 mps 682 mmHg 93%
    03:00 +9°C° 0 mm 2 mps 682 mmHg 93%
    04:00 +9°C° 0 mm 2 mps 682 mmHg 93%
    05:00 +10°C° 0 mm 2 mps 682 mmHg 88%
    06:00 +13°C° 0 mm 2 mps 682 mmHg 84%
    07:00 +14°C° 0 mm 1 mps 683 mmHg 80%
    08:00 +15°C° 0.1 mm 1 mps 683 mmHg 73%
    09:00 +16°C° 0.1 mm 1 mps 683 mmHg 67%
    10:00 +19°C° 0.1 mm 1 mps 683 mmHg 60%
    11:00 +19°C° 0.2 mm 1 mps 683 mmHg 62%
    12:00 +19°C° 0.2 mm 1 mps 683 mmHg 64%
    13:00 +19°C° 0.2 mm 1 mps 683 mmHg 66%
    14:00 +19°C° 0.7 mm 1 mps 683 mmHg 71%
    15:00 +18°C° 0.7 mm 1 mps 683 mmHg 76%
    16:00 +18°C° 0.7 mm 1 mps 683 mmHg 81%
    17:00 +18°C° 0.3 mm 1 mps 683 mmHg 83%
    18:00 +18°C° 0.3 mm 1 mps 683 mmHg 85%
    19:00 +16°C° 0.3 mm 1 mps 683 mmHg 88%
    20:00 +16°C° 0.1 mm 1 mps 683 mmHg 89%
    21:00 +15°C° 0.1 mm 1 mps 683 mmHg 90%
    22:00 +14°C° 0.1 mm 1 mps 683 mmHg 91%
    23:00 +14°C° 0.1 mm 1 mps 683 mmHg 92%

    28 July, Friday

    Time Temperature Precipitation Wind Pressure Humidity
    00:00 +13°C° 0.1 mm 1 mps 683 mmHg 92%
    01:00 +13°C° 0.1 mm 1 mps 683 mmHg 92%
    02:00 +13°C° 0.3 mm 1 mps 683 mmHg 93%
    03:00 +13°C° 0.3 mm 1 mps 683 mmHg 93%
    04:00 +13°C° 0.3 mm 1 mps 683 mmHg 93%
    05:00 +14°C° 0.3 mm 1 mps 683 mmHg 91%
    06:00 +15°C° 0.3 mm 1 mps 684 mmHg 88%
    07:00 +18°C° 0.3 mm 1 mps 684 mmHg 86%
    08:00 +19°C° 0.3 mm 1 mps 685 mmHg 83%
    09:00 +20°C° 0.3 mm 1 mps 685 mmHg 80%
    10:00 +21°C° 0.3 mm 1 mps 685 mmHg 78%
    11:00 +21°C° 0.2 mm 2 mps 685 mmHg 73%
    12:00 +23°C° 0.2 mm 2 mps 686 mmHg 69%
    13:00 +24°C° 0.2 mm 2 mps 686 mmHg 64%
    14:00 +24°C° 0.2 mm 2 mps 686 mmHg 66%
    15:00 +24°C° 0.2 mm 2 mps 686 mmHg 68%
    16:00 +23°C° 0.2 mm 2 mps 686 mmHg 69%
    17:00 +21°C° 0.1 mm 2 mps 686 mmHg 75%
    18:00 +20°C° 0.1 mm 2 mps 686 mmHg 81%
    19:00 +20°C° 0.1 mm 1 mps 686 mmHg 87%
    20:00 +19°C° 0 mm 1 mps 686 mmHg 90%
    21:00 +18°C° 0 mm 1 mps 687 mmHg 93%
    22:00 +15°C° 0 mm 1 mps 687 mmHg 97%
    23:00 +15°C° 0 mm 1 mps 687 mmHg 96%

    29 July, Saturday

    Time Temperature Precipitation Wind Pressure Humidity
    00:00 +15°C° 0 mm 1 mps 687 mmHg 96%
    01:00 +14°C° 0 mm 1 mps 687 mmHg 95%
    02:00 +14°C° 0 mm 1 mps 687 mmHg 95%
    03:00 +14°C° 0 mm 1 mps 687 mmHg 95%
    04:00 +14°C° 0 mm 1 mps 686 mmHg 94%
    05:00 +16°C° 0 mm 1 mps 687 mmHg 91%
    06:00 +18°C° 0 mm 1 mps 687 mmHg 89%
    07:00 +20°C° 0 mm 1 mps 688 mmHg 86%
    08:00 +22°C° 0.1 mm 1 mps 688 mmHg 78%
    09:00 +23°C° 0.1 mm 1 mps 688 mmHg 71%
    10:00 +25°C° 0.1 mm 1 mps 689 mmHg 63%
    11:00 +25°C° 0.4 mm 1 mps 688 mmHg 66%
    12:00 +25°C° 0.4 mm 2 mps 688 mmHg 68%
    13:00 +25°C° 0.4 mm 2 mps 688 mmHg 70%
    14:00 +24°C° 1.2 mm 1 mps 688 mmHg 75%
    15:00 +24°C° 1.2 mm 1 mps 688 mmHg 79%
    16:00 +23°C° 1.2 mm 1 mps 688 mmHg 83%
    17:00 +22°C° 3.3 mm 1 mps 688 mmHg 87%
    18:00 +21°C° 3.3 mm 1 mps 688 mmHg 91%
    19:00 +20°C° 3.3 mm 1 mps 688 mmHg 95%
    20:00 +20°C° 1.8 mm 1 mps 688 mmHg 96%
    21:00 +19°C° 1.8 mm 1 mps 688 mmHg 96%
    22:00 +19°C° 1.8 mm 1 mps 688 mmHg 97%
    23:00 +18°C° 0.3 mm 1 mps 688 mmHg 96%

    30 July, Sunday

    Time Temperature Precipitation Wind Pressure Humidity
    00:00 +18°C° 0.3 mm 1 mps 688 mmHg 96%
    01:00 +18°C° 0.3 mm 1 mps 687 mmHg 95%
    02:00 +18°C° 0.4 mm 1 mps 687 mmHg 95%
    03:00 +16°C° 0.4 mm 1 mps 687 mmHg 95%
    04:00 +16°C° 0.4 mm 1 mps 687 mmHg 95%
    05:00 +18°C° 0.1 mm 1 mps 687 mmHg 93%
    06:00 +19°C° 0.1 mm 1 mps 687 mmHg 91%
    07:00 +21°C° 0.1 mm 1 mps 687 mmHg 89%
    08:00 +23°C° 0.3 mm 1 mps 688 mmHg 77%
    09:00 +26°C° 0.3 mm 1 mps 688 mmHg 64%
    10:00 +28°C° 0.3 mm 1 mps 688 mmHg 52%
    11:00 +28°C° 0.6 mm 1 mps 688 mmHg 50%
    12:00 +29°C° 0.6 mm 1 mps 688 mmHg 48%
    13:00 +29°C° 0.6 mm 1 mps 688 mmHg 46%
    14:00 +29°C° 0.6 mm 1 mps 687 mmHg 48%
    15:00 +28°C° 0.6 mm 1 mps 687 mmHg 51%
    16:00 +28°C° 0.6 mm 1 mps 687 mmHg 53%
    17:00 +26°C° 1 mm 1 mps 687 mmHg 63%
    18:00 +25°C° 1 mm 1 mps 687 mmHg 73%
    19:00 +21°C° 1 mm 0 mps 687 mmHg 83%
    20:00 +22°C° 0.3 mm 1 mps 687 mmHg 85%
    21:00 +20°C° 0.3 mm 1 mps 687 mmHg 87%
    22:00 +19°C° 0.3 mm 1 mps 687 mmHg 90%
    23:00 +18°C° 0 mm 2 mps 687 mmHg 90%
    Show more